Location: Unspecified
(49.2170°N, 0.0000°E)
Time: 12:15:49
(UTC+00:00)

Vanguard 1 - Pass Details

Date: 25 January 2021
Orbit: 649 x 3834 km, 34.2° (Epoch: 05 March)

Event Time Altitude Azimuth Distance (km) Brightness Sun altitude
Rises 17:09:29 0° 271° (W) 7,577 16.0 -4.4°
Reaches altitude 10° 17:14:43 10° 266° (W) 6,765 15.8 -5.1°
Maximum altitude 17:35:32 44° 205° (SSW) 4,552 13.8 -8.3°
Drops below altitude 10° 17:52:57 10° 141° (SE) 5,713 13.7 -11.0°
Sets 17:56:56 0° 135° (SE) 6,361 13.9 -11.6°
